sat.trackr.live / text

‹ back to catalog

N1-ATLAS

NORAD 68501 · 2026-067CP

PAYLOAD ACTIVE UNKNOWN

§ Identity

Operator
Country
US
Launch date
2026-03-30
Launch site
AFWTR
Launch vehicle
Mass (kg)
RCS (m²)

External: N2YO · Heavens-Above · Gunter

§ Orbital elements

Epoch: 2026-09-20T03:01:58.521792Z

Period
96.53 min
Inclination
97.7740°
Eccentricity
0.0004926
Mean motion
14.91752272 rev/d
Perigee alt
589.0 km
Apogee alt
595.9 km
Semi-major
6,970.6 km
B*
1.1188e-4
RAAN
219.9581°
Arg perigee
76.3713°
Mean anomaly
283.8054°
Rev number
2,587

§ Raw data

N1-ATLAS1 68501U 26067CP  26263.12637178  .00001071  00000+0  11188-3 0  99952 68501  97.7740 219.9581 0004926  76.3713 283.8054 14.91752272 25871

JSON: /api/v1/satellites/68501 · /tle

For live sub-satellite position, see the globe view (requires WebGL).

§ Visibility from observer

Set your observer location to see the next 7 days of passes ≥ 10°. The values pass through the URL so the page stays shareable.

No JS? Fill the form by hand. The geolocation button needs JavaScript.